Main page
METAR-TAF:

METAR-TAF

Airports :

Olney-Noble Airport

Olney-Noble, Illinois, United States

latitude: 38-43-19N, longitude: 088-10-35W, elevation: 482 ft

Current weather observation

The report was made 32 minutes ago, at 07:50 UTC
Wind 5 mph from the South/Southeast
Temperature 77°F
Humidity 83%
Pressure 29.98 in. Hg
Visibility: 10 miles
Clear sky

METAR: KOLY 170750Z AUTO 16004KT 10SM CLR 25/22 A2998 RMK AO2 T02500220

Time: 03:22 (08:22 UTC)


TAF: missing

Weather observations and forecasts of more than 4000 airports (METAR and TAF reports).

The available stations are represented by yellow and red dots on the map.

Hover mouse over dot to see the name of the station.

Then click to see weather observations and forecasts.

To change the map : click on the green buttons with a black cross to zoom in, on the green button with a dash to zoom out, or on the green arrows for adjacent maps.


METAR-TAF: